Cloud_Cover
100 100 100 100 100 100 100 100 100 100 100 49 21 5 1 11 52 98 24 6 0 0 0 0 0 0 2 0 0 0 0 5 12 5 2 1 2 4 5 98 100 11 7
100 100 100 100 100 100 100 100 100 100 100 100 100 70 3 23 35 32 81 5 4 0 0 0 0 0 0 0 0 0 0 0 2 5 5 5 4 1 0 0 0 2 5
100 100 100 100 100 100 100 99 100 100 100 100 100 100 78 27 0 0 81 0 97 54 0 0 0 0 0 0 1 0 0 0 0 0 0 0 0 0 0 0 0 0 0
100 100 100 100 100 100 100 100 100 100 100 100 100 100 69 100 40 86 100 4 14 8 46 31 0 1 5 0 5 4 0 0 0 0 0 0 0 0 0 0 0 0 0
96 100 100 100 100 25 88 100 100 100 100 100 100 93 100 100 100 59 0 66 94 39 50 96 9 6 68 5 10 43 1 0 0 0 0 0 0 0 0 0 0 0 0
2 1 12 8 72 5 40 100 100 100 100 100 100 100 100 100 100 99 82 48 8 100 100 60 100 48 35 5 7 97 5 5 5 0 0 0 0 0 0 2 0 0 0
5 5 1 0 63 1 55 100 100 100 100 100 100 100 100 100 100 100 64 84 100 100 100 100 17 7 100 100 31 82 4 32 5 0 0 0 0 0 0 0 0 4 5
5 8 96 3 6 80 99 94 99 100 95 91 64 100 96 93 100 100 100 100 100 100 100 42 100 100 100 100 100 100 55 57 100 72 3 0 0 1 1 2 54 28 0
100 63 36 11 74 4 2 3 4 5 5 5 26 43 43 27 29 100 100 100 100 100 100 100 100 100 100 100 100 100 100 100 40 27 61 2 4 100 100 99 97 100 100
100 100 95 79 7 12 5 7 5 10 5 5 5 77 15 99 76 100 70 100 99 100 100 100 100 100 100 100 100 100 100 100 100 5 5 6 6 100 100 100 100 100 79
88 100 100 42 7 0 8 5 5 3 1 5 5 0 0 0 38 100 100 97 100 57 88 100 100 100 100 100 100 100 100 100 100 42 12 99 94 91 100 97 99 87 12
10 76 76 77 4 0 0 5 24 49 40 6 3 13 5 0 2 27 90 100 33 89 100 100 98 100 100 100 100 100 100 100 100 13 4 100 100 43 100 100 80 38 12
24 100 78 8 3 0 4 5 21 67 56 84 12 16 40 6 2 4 0 52 5 100 79 100 40 73 100 100 100 100 100 100 100 54 5 51 100 71 66 85 63 99 100
39 56 49 94 96 23 4 5 39 99 39 61 9 52 64 88 89 5 5 5 2 5 14 16 100 100 23 58 100 100 100 100 0 4 5 5 9 35 9 6 9 85 14
89 100 45 90 93 34 5 9 54 77 92 71 34 19 70 76 52 100 53 7 5 5 5 74 10 28 100 100 100 100 100 100 5 0 0 4 0 0 1 5 5 3 0
72 93 94 85 86 51 97 67 12 6 100 99 100 97 72 82 20 32 70 87 85 20 23 5 39 8 92 100 100 100 100 100 5 5 1 4 1 4 0 0 0 0 0
19 91 96 68 100 100 100 98 78 93 98 100 100 100 100 59 28 18 5 48 96 94 100 99 9 5 68 81 77 100 100 32 13 90 78 69 5 1 0 4 3 0 0
96 43 36 100 100 65 81 100 100 72 56 83 100 100 100 100 100 41 28 63 58 65 91 100 100 95 46 6 8 78 97 100 100 100 100 98 54 4 5 4 1 0 1
100 100 84 20 91 46 63 88 92 100 83 100 100 100 100 100 100 98 25 15 29 74 36 100 100 97 76 56 12 17 8 90 74 100 100 100 100 100 100 100 36 10 56
94 100 100 100 99 98 98 48 19 23 31 97 52 88 94 88 98 100 100 81 20 50 5 57 82 98 100 56 76 5 4 100 100 100 100 100 100 100 100 100 100 94 53
1 17 97 100 100 100 100 100 100 5 13 81 100 84 39 79 29 18 5 5 98 14 5 5 8 64 100 100 98 68 15 100 100 100 100 100 100 100 100 100 100 100 5
0 0 0 13 47 54 81 82 73 100 39 99 100 100 7 28 20 100 5 9 100 98 8 9 84 98 100 100 100 90 64 75 100 100 100 100 100 100 100 100 100 98 3
0 0 0 0 0 0 4 14 5 5 38 100 100 100 100 52 100 63 36 5 35 100 84 95 100 64 97 99 93 84 99 35 82 100 100 100 99 100 100 100 100 21 0
0 0 0 40 2 0 0 0 9 4 2 5 76 72 40 80 5 99 15 55 95 51 60 100 98 100 90 14 71 60 86 100 63 99 100 100 100 100 96 84 66 5 2
0 0 0 0 0 0 0 0 0 0 0 1 0 2 5 5 2 78 99 47 89 94 100 96 99 64 79 51 6 82 38 100 61 27 19 99 100 34 26 53 67 5 0
0 0 0 0 0 0 0 0 6 0 0 0 5 0 0 24 26 5 5 4 68 5 13 100 62 55 100 95 64 100 87 65 6 3 0 5 45 94 86 33 6 17 46